Troy, AL

12:32 PM CDT on October 18, 2017 (GMT -0500)
Troy Municipal

Weather History for KTOI - January, 2014

Change the Weather History Date:

Friday, January 10, 2014

  Actual Average Record
Temperature  
Mean Temperature 55 °F 46 °F  
Max Temperature 63 °F 58 °F 78 °F (2013)
Min Temperature 47 °F 35 °F 19 °F (2001)
Degree Days  
Heating Degree Days 10 19  
Month to date heating degree days 262 190  
Since 1 July heating degree days 1043 1107  
Growing Degree Days 4 (Base 50)    
Moisture  
Dew Point 52 °F    
Average Humidity 97    
Maximum Humidity 100    
Minimum Humidity 93    
Precipitation  
Precipitation 0.41 in 0.11 in 2.53 in (2008)
Month to date precipitation 0.86 1.49  
Year to date precipitation 0.86 1.49  
Snow  
Snow 0.00 in - - ()
Month to date snowfall 0.0  
Since 1 July snowfall 0.0  
Snow Depth 0.00 in    
Sea Level Pressure  
Sea Level Pressure 30.10 in    
Wind  
Wind Speed 4 mph (East)    
Max Wind Speed 14 mph    
Max Gust Speed 17 mph    
Visibility 2 miles    
Events Fog , Rain , Thunderstorm    
T = Trace of Precipitation, MM = Missing Value Source: NWS Daily Summary

Daily Weather History Graph

Daily Weather History Graph

Search for Another Location

Airport or City:

Trip Planner

Search our weather history database for the weather conditions in past years. The results will help you decide how hot, cold, wet, or windy it might be!

Date:

Astronomy

Jan. 10, 2014 Rise Set
Actual Time 6:45 AM CST 4:58 PM CST
Civil Twilight 6:18 AM CST 5:24 PM CST
Nautical Twilight 5:48 AM CST 5:55 PM CST
Astronomical Twilight 5:18 AM CST 6:24 PM CST
Moon 12:57 PM CST (1/10) 1:57 AM CST (1/10)
Length of Visible Light 11h 06m
Length of Day
10h 13m
Waxing Gibbous, 75% of the Moon is Illuminated
Jan 10
Waxing Gibbous
Jan 15
Full
Jan 23
Last Quarter
Jan 30
New
Feb 6
First Quarter

Hourly Weather History & Observations

Time (CST) Temp. Dew Point Humidity Pressure Visibility Wind Dir Wind Speed Gust Speed Precip Events Conditions
12:14 AM 46.9 °F 45.0 °F 93% 30.27 in 1.8 mi NNE 4.6 mph - 0.01 in Rain Light Rain
12:24 AM 46.9 °F 45.0 °F 93% 30.27 in 2.5 mi NNE 4.6 mph - 0.01 in Rain Light Rain
12:31 AM 46.9 °F 45.0 °F 93% 30.27 in 3.0 mi NNE 4.6 mph - 0.01 in Rain Light Rain
12:53 AM 46.9 °F 45.0 °F 93% 30.26 in 6.0 mi North 4.6 mph - 0.02 in   Overcast
1:53 AM 46.9 °F 45.0 °F 93% 30.25 in 5.0 mi NNE 4.6 mph - 0.00 in   Overcast
2:30 AM 46.9 °F 45.0 °F 93% 30.24 in 4.0 mi NE 4.6 mph - N/A   Overcast
2:53 AM 46.9 °F 45.0 °F 93% 30.24 in 3.0 mi NE 4.6 mph - N/A   Overcast
3:01 AM 46.9 °F 45.0 °F 93% 30.23 in 2.0 mi NE 5.8 mph - 0.00 in Rain Light Rain
3:33 AM 46.9 °F 45.0 °F 93% 30.23 in 3.0 mi NE 4.6 mph - 0.01 in   Overcast
3:46 AM 46.9 °F 45.0 °F 93% 30.23 in 3.0 mi NE 4.6 mph - 0.01 in   Overcast
3:53 AM 46.9 °F 45.0 °F 93% 30.23 in 4.0 mi NE 4.6 mph - 0.01 in   Overcast
4:28 AM 46.9 °F 45.0 °F 93% 30.21 in 2.5 mi NE 4.6 mph - 0.00 in   Overcast
4:38 AM 46.9 °F 45.0 °F 93% 30.21 in 4.0 mi ENE 3.5 mph - 0.00 in   Overcast
4:53 AM 46.9 °F 45.0 °F 93% 30.21 in 2.5 mi ENE 3.5 mph - 0.00 in Rain Light Rain
5:08 AM 46.9 °F 45.0 °F 93% 30.20 in 4.0 mi ENE 3.5 mph - 0.00 in   Overcast
5:23 AM 46.9 °F 45.0 °F 93% 30.20 in 3.0 mi Calm Calm - 0.00 in   Overcast
5:42 AM 46.9 °F 45.0 °F 93% 30.20 in 2.0 mi NE 3.5 mph - 0.00 in   Overcast
5:53 AM 46.9 °F 45.0 °F 93% 30.20 in 3.0 mi NE 3.5 mph - 0.00 in   Overcast
6:06 AM 46.9 °F 45.0 °F 93% 30.20 in 2.5 mi NE 4.6 mph - N/A   Overcast
6:34 AM 46.9 °F 45.0 °F 93% 30.20 in 1.8 mi NE 4.6 mph - N/A   Overcast
6:53 AM 46.9 °F 45.0 °F 93% 30.20 in 2.0 mi ENE 4.6 mph - N/A   Overcast
7:06 AM 46.9 °F 45.0 °F 93% 30.20 in 1.5 mi NE 3.5 mph - N/A   Overcast
7:15 AM 46.9 °F 45.0 °F 93% 30.20 in 1.2 mi NE 4.6 mph - N/A   Overcast
7:53 AM 48.0 °F 46.0 °F 93% 30.21 in 1.2 mi ENE 3.5 mph - N/A   Overcast
8:11 AM 48.0 °F 46.0 °F 93% 30.21 in 1.5 mi ENE 4.6 mph - N/A   Overcast
8:35 AM 48.0 °F 46.0 °F 93% 30.21 in 1.2 mi ENE 6.9 mph - N/A   Overcast
8:53 AM 48.0 °F 46.0 °F 93% 30.21 in 1.2 mi East 4.6 mph - N/A   Overcast
9:10 AM 48.9 °F 46.9 °F 93% 30.22 in 1.8 mi ENE 3.5 mph - N/A   Overcast
9:39 AM 50.0 °F 48.0 °F 93% 30.22 in 2.0 mi ENE 3.5 mph - N/A   Overcast
9:48 AM 50.0 °F 48.2 °F 94% 30.21 in 1.8 mi Variable 3.5 mph - N/A   Overcast
9:53 AM 50.0 °F 48.0 °F 93% 30.21 in 2.0 mi ENE 5.8 mph - N/A   Overcast
10:24 AM 51.1 °F 48.9 °F 92% 30.20 in 3.0 mi ENE 3.5 mph - N/A   Overcast
10:33 AM 51.1 °F 48.9 °F 92% 30.19 in 1.8 mi East 4.6 mph - N/A   Overcast
10:37 AM 51.1 °F 48.9 °F 92% 30.19 in 1.2 mi ENE 3.5 mph - N/A   Overcast
10:53 AM 52.0 °F 50.0 °F 93% 30.17 in 1.5 mi ENE 3.5 mph - 0.00 in Rain Light Rain
10:59 AM 52.0 °F 48.9 °F 89% 30.17 in 2.0 mi East 3.5 mph - 0.00 in Rain Light Rain
11:13 AM 52.0 °F 50.0 °F 93% 30.16 in 4.0 mi ENE 4.6 mph - 0.00 in   Overcast
11:53 AM 53.1 °F 51.1 °F 93% 30.13 in 5.0 mi East 3.5 mph - 0.00 in   Overcast
12:30 PM 53.1 °F 51.1 °F 93% 30.10 in 2.5 mi ENE 3.5 mph - 0.00 in   Overcast
12:53 PM 54.0 °F 52.0 °F 93% 30.09 in 1.5 mi Calm Calm - 0.00 in   Overcast
12:59 PM 54.0 °F 52.0 °F 93% 30.09 in 1.0 mi Calm Calm - N/A   Overcast
1:16 PM 54.0 °F 52.0 °F 93% 30.08 in 1.5 mi NE 3.5 mph - N/A   Overcast
1:43 PM 54.0 °F 52.0 °F 93% 30.07 in 1.2 mi East 3.5 mph - 0.00 in   Overcast
1:51 PM 53.6 °F 51.8 °F 94% 30.07 in 0.8 mi ENE 4.6 mph - 0.00 in   Overcast
1:53 PM 54.0 °F 52.0 °F 93% 30.06 in 0.8 mi ENE 3.5 mph - 0.00 in   Overcast
1:58 PM 54.0 °F 53.1 °F 97% 30.07 in 0.5 mi ENE 3.5 mph - N/A Fog Fog
2:53 PM 55.0 °F 54.0 °F 96% 30.06 in 0.2 mi Calm Calm - 0.00 in Fog , Rain Light Rain
3:11 PM 55.0 °F 54.0 °F 96% 30.06 in 1.0 mi Calm Calm - 0.00 in Rain Light Rain
3:18 PM 55.0 °F 54.0 °F 96% 30.06 in 1.5 mi ENE 3.5 mph - 0.00 in   Overcast
3:27 PM 55.0 °F 54.0 °F 96% 30.06 in 1.0 mi ENE 3.5 mph - 0.00 in   Overcast
3:41 PM 55.9 °F 54.0 °F 93% 30.05 in 0.8 mi Calm Calm - 0.00 in   Overcast
3:53 PM 55.9 °F 54.0 °F 93% 30.05 in 0.8 mi East 3.5 mph - 0.00 in   Overcast
4:03 PM 55.9 °F 54.0 °F 93% 30.05 in 1.0 mi East 4.6 mph - 0.00 in Rain Light Rain
4:08 PM 55.9 °F 54.0 °F 93% 30.05 in 1.5 mi East 4.6 mph - 0.00 in Rain Light Rain
4:12 PM 55.9 °F 54.0 °F 93% 30.05 in 2.0 mi East 4.6 mph - 0.00 in Rain Light Rain
4:21 PM 55.9 °F 54.0 °F 93% 30.05 in 3.0 mi East 4.6 mph - 0.00 in   Overcast
4:28 PM 55.9 °F 54.0 °F 93% 30.04 in 2.5 mi East 4.6 mph - 0.00 in   Overcast
4:38 PM 55.9 °F 54.0 °F 93% 30.05 in 1.5 mi East 3.5 mph - 0.00 in   Overcast
4:46 PM 55.9 °F 54.0 °F 93% 30.05 in 1.0 mi East 3.5 mph - 0.00 in   Overcast
4:53 PM 55.9 °F 54.0 °F 93% 30.05 in 1.0 mi East 3.5 mph - 0.00 in   Overcast
4:58 PM 55.9 °F 54.0 °F 93% 30.05 in 1.2 mi ESE 4.6 mph - N/A   Overcast
5:08 PM 55.9 °F 54.0 °F 93% 30.04 in 1.5 mi ESE 4.6 mph - N/A   Overcast
5:16 PM 55.9 °F 54.0 °F 93% 30.04 in 1.8 mi East 4.6 mph - N/A   Overcast
5:28 PM 55.9 °F 54.0 °F 93% 30.04 in 2.0 mi Calm Calm - N/A   Overcast
5:36 PM 55.9 °F 54.0 °F 93% 30.05 in 1.8 mi Calm Calm - N/A   Overcast
5:41 PM 55.9 °F 54.0 °F 93% 30.05 in 1.2 mi ESE 3.5 mph - N/A   Overcast
5:50 PM 55.4 °F 53.6 °F 94% 30.05 in 0.8 mi Calm Calm - N/A   Overcast
5:51 PM 55.9 °F 54.0 °F 93% 30.05 in 0.8 mi Calm Calm - N/A   Overcast
5:59 PM 55.9 °F 54.0 °F 93% 30.04 in 0.8 mi East 3.5 mph - N/A   Overcast
6:11 PM 55.9 °F 54.0 °F 93% 30.04 in 0.5 mi East 3.5 mph - N/A Fog Fog
6:19 PM 55.9 °F 54.0 °F 93% 30.04 in 0.5 mi ESE 4.6 mph - N/A Fog Fog
6:44 PM 55.9 °F 55.0 °F 97% 30.04 in 0.8 mi ESE 3.5 mph - N/A   Overcast
6:51 PM 57.2 °F 55.4 °F 94% 30.03 in 1.0 mi ESE 4.6 mph - N/A   Overcast
6:52 PM 57.0 °F 55.0 °F 93% 30.04 in 1.0 mi ESE 4.6 mph - N/A   Overcast
6:57 PM 57.0 °F 55.0 °F 93% 30.04 in 1.5 mi SE 4.6 mph - N/A   Overcast
7:13 PM 57.0 °F 55.9 °F 96% 30.04 in 1.8 mi ESE 3.5 mph - N/A   Overcast
7:18 PM 57.0 °F 55.9 °F 96% 30.03 in 2.0 mi ESE 4.6 mph - N/A   Overcast
7:48 PM 57.2 °F 57.2 °F 100% 30.04 in 3.0 mi SE 4.6 mph - N/A   Overcast
7:53 PM 57.9 °F 57.0 °F 97% 30.04 in 3.0 mi SE 4.6 mph - N/A   Overcast
8:04 PM 57.9 °F 57.0 °F 97% 30.04 in 2.0 mi SSE 5.8 mph - N/A   Overcast
8:18 PM 57.9 °F 57.0 °F 97% 30.03 in 1.5 mi SE 4.6 mph - N/A   Overcast
8:33 PM 57.9 °F 57.0 °F 97% 30.03 in 1.2 mi SE 4.6 mph - N/A   Overcast
8:40 PM 59.0 °F 57.0 °F 93% 30.03 in 1.5 mi SE 4.6 mph - N/A   Overcast
8:53 PM 59.0 °F 57.0 °F 93% 30.02 in 1.5 mi SE 4.6 mph - N/A   Overcast
9:20 PM 60.1 °F 57.9 °F 93% 30.01 in 2.0 mi SE 4.6 mph - N/A   Overcast
9:53 PM 61.0 °F 59.0 °F 93% 30.00 in 2.5 mi SE 9.2 mph - N/A   Overcast
10:27 PM 62.1 °F 60.1 °F 93% 29.99 in 2.0 mi SSE 8.1 mph - N/A Thunderstorm Overcast
10:37 PM 62.1 °F 60.1 °F 93% 30.00 in 2.5 mi SSW 4.6 mph - 0.00 in Rain , Thunderstorm Light Thunderstorms and Rain
10:43 PM 62.1 °F 60.1 °F 93% 30.01 in 1.5 mi SSW 6.9 mph - 0.01 in Rain , Thunderstorm Heavy Thunderstorms and Rain
10:45 PM 62.1 °F 60.1 °F 93% 30.01 in 1.0 mi SSE 10.4 mph - 0.13 in Rain , Thunderstorm Heavy Thunderstorms and Rain
10:53 PM 62.1 °F 60.1 °F 93% 29.97 in 0.8 mi SE 10.4 mph - 0.32 in Rain , Thunderstorm Heavy Thunderstorms and Rain
10:55 PM 62.1 °F 61.0 °F 96% 29.98 in 1.0 mi SE 9.2 mph - 0.02 in Rain , Thunderstorm Thunderstorms and Rain
10:57 PM 62.1 °F 61.0 °F 96% 29.98 in 1.8 mi SSE 8.1 mph - 0.02 in Rain , Thunderstorm Thunderstorms and Rain
11:00 PM 62.1 °F 61.0 °F 96% 29.98 in 3.0 mi SE 8.1 mph - 0.03 in Rain , Thunderstorm Thunderstorms and Rain
11:11 PM 62.1 °F 61.0 °F 96% 29.98 in 5.0 mi SE 5.8 mph - 0.06 in Rain Rain
11:16 PM 62.1 °F 61.0 °F 96% 29.97 in 6.0 mi SE 5.8 mph - 0.06 in Rain , Thunderstorm Light Rain
11:34 PM 62.1 °F 61.0 °F 96% 29.97 in 1.8 mi SSE 5.8 mph - 0.06 in Thunderstorm Overcast
11:37 PM 62.1 °F 61.0 °F 96% 29.97 in 1.2 mi SSE 5.8 mph - 0.06 in Thunderstorm Overcast
11:44 PM 62.1 °F 61.0 °F 96% 29.96 in 0.8 mi SSE 5.8 mph - 0.06 in Thunderstorm Overcast
11:50 PM 62.6 °F 60.8 °F 94% 29.96 in 0.8 mi South 6.9 mph - 0.06 in   Overcast
11:51 PM 62.1 °F 61.0 °F 96% 29.96 in 0.8 mi SSE 6.9 mph - 0.06 in   Overcast